This is the latest recevied weather packets stored in our database for station/object IZ1UQG-N2. If no packets are shown the sender has not sent any weather packets the latest 1 day(s).
| Time | Temp. | Humidity | Pressure | Rain* | Wind** | Luminosity | Snow |
|---|---|---|---|---|---|---|---|
| 1777981129 | 12.78° C | 87% | 1012.2 hPa | 0 mm | 1.34 m/s, 358° | 153 W/m² | - |
| 1777981069 | 12.78° C | 88% | 1012.2 hPa | 0 mm | 1.34 m/s, 358° | 155 W/m² | - |
| 1777981009 | 12.78° C | 87% | 1012.1 hPa | 0 mm | 1.34 m/s, 1° | 155 W/m² | - |
| 1777980967 | 12.78° C | 87% | 1012.1 hPa | 0 mm | 1.34 m/s, 1° | 155 W/m² | - |
| 1777980949 | 12.78° C | 87% | 1012.1 hPa | 0 mm | 0.89 m/s, 359° | 151 W/m² | - |
| 1777980889 | 12.78° C | 87% | 1012.1 hPa | 0 mm | 0.89 m/s, 358° | 148 W/m² | - |
| 1777980830 | 12.78° C | 87% | 1012.2 hPa | 0 mm | 0.89 m/s, 358° | 144 W/m² | - |
| 1777980787 | 12.78° C | 87% | 1012.2 hPa | 0 mm | 0.89 m/s, 358° | 144 W/m² | - |
| 1777980769 | 12.78° C | 87% | 1012.1 hPa | 0 mm | 0.89 m/s, 359° | 141 W/m² | - |
| 1777980709 | 12.78° C | 87% | 1012.1 hPa | 0 mm | 0.89 m/s, 358° | 139 W/m² | - |
| 1777980649 | 12.78° C | 87% | 1012.1 hPa | 0 mm | 0.89 m/s, 3° | 139 W/m² | - |
| 1777980607 | 12.78° C | 87% | 1012.1 hPa | 0 mm | 0.89 m/s, 3° | 139 W/m² | - |
| 1777980591 | 12.78° C | 87% | 1012.2 hPa | 0 mm | 0.89 m/s, 11° | 142 W/m² | - |
| 1777980530 | 12.78° C | 87% | 1012.2 hPa | 0 mm | 0.89 m/s, 16° | 144 W/m² | - |
| 1777980470 | 12.78° C | 87% | 1012.2 hPa | 0 mm | 0.89 m/s, 15° | 146 W/m² | - |
| 1777980427 | 12.78° C | 87% | 1012.2 hPa | 0 mm | 0.89 m/s, 15° | 146 W/m² | - |
| 1777980409 | 12.78° C | 86% | 1012.2 hPa | 0 mm | 0.89 m/s, 16° | 144 W/m² | - |
| 1777980349 | 12.78° C | 86% | 1012.2 hPa | 0 mm | 0.89 m/s, 25° | 144 W/m² | - |
| 1777980291 | 12.78° C | 86% | 1012.1 hPa | 0 mm | 0.89 m/s, 36° | 141 W/m² | - |
| 1777980248 | 12.78° C | 86% | 1012.1 hPa | 0 mm | 0.89 m/s, 36° | 141 W/m² | - |
| 1777980230 | 12.78° C | 86% | 1012.2 hPa | 0 mm | 0.89 m/s, 46° | 132 W/m² | - |
| 1777980169 | 12.78° C | 86% | 1012.2 hPa | 0 mm | 0.89 m/s, 58° | 127 W/m² | - |
| 1777980111 | 12.78° C | 86% | 1012.1 hPa | 0 mm | 0.89 m/s, 61° | 123 W/m² | - |
| 1777980068 | 12.78° C | 86% | 1012.1 hPa | 0 mm | 0.89 m/s, 61° | 123 W/m² | - |
| 1777980050 | 13.33° C | 86% | 1012.1 hPa | 0 mm | 0.89 m/s, 69° | 121 W/m² | - |
* Rain latest hour (hover to see other rain measurements)
** Current wind speed in m/s (hover to see current wind gust speed)